DW5735 Weather Reports


Display with metric or nautical units.
time (UTC)temp
F
wind
direction
speed
MPH
gust
MPH
rain 1hr
in
rain 24hr
in
rain mn
in
humidity
%
barometer
mb
20260506092826 56 120 0.0 0.0 0.00 0.00 0.00 57 1010.8
20260506092317 56 150 0.0 0.0 0.00 0.00 0.00 59 1010.8
20260506091846 56 228 0.0 0.0 0.00 0.00 0.00 59 1010.8
20260506091602 56 228 0.0 0.0 0.00 0.00 0.00 59 1010.0
20260506091342 56 219 0.0 0.0 0.00 0.00 0.00 54 1010.8
20260506090820 57 111 0.0 0.0 0.00 0.00 0.00 50 1010.8
20260506090324 57 91 0.0 0.0 0.00 0.00 0.00 51 1010.8
20260506090112 57 98 0.0 0.0 0.00 0.00 0.00 54 1010.0
20260506085830 57 116 0.0 0.0 0.00 0.00 0.00 49 1010.8
20260506085347 57 77 0.0 0.0 0.00 0.00 0.00 50 1010.7
20260506084823 56 98 0.0 0.0 0.00 0.00 0.00 52 1010.8
20260506084634 56 97 0.0 0.0 0.00 0.00 0.00 53 1009.9
20260506084337 57 101 0.0 0.0 0.00 0.00 0.00 52 1010.8
20260506083846 57 99 0.0 0.0 0.00 0.00 0.00 55 1010.8
20260506083327 57 94 0.0 0.0 0.00 0.00 0.00 57 1010.8
20260506083104 57 277 0.0 0.0 0.00 0.00 0.00 61 1010.0
20260506082822 58 282 0.0 0.0 0.00 0.00 0.00 51 1010.8
20260506082327 58 112 0.0 0.0 0.00 0.00 0.00 48 1010.8
20260506081820 58 103 0.0 0.0 0.00 0.00 0.00 49 1010.7
20260506081501 57 49 0.0 0.0 0.00 0.00 0.00 50 1009.9
20260506081326 58 47 0.0 0.0 0.00 0.00 0.00 49 1010.7
20260506080829 57 86 0.0 0.0 0.00 0.00 0.00 51 1010.6
20260506080324 57 108 0.0 0.0 0.00 0.00 0.00 52 1010.6
20260506080107 56 93 0.0 0.0 0.00 0.00 0.00 52 1009.8
20260506073337 58 125 0.0 0.0 0.00 0.00 0.00 51 1010.6
20260506073108 57 215 0.0 0.0 0.00 0.00 0.00 51 1009.7
20260506072825 58 215 0.0 0.0 0.00 0.00 0.00 51 1010.6
20260506072337 58 180 0.0 0.0 0.00 0.00 0.00 54 1010.5
20260506071836 58 233 0.0 0.0 0.00 0.00 0.00 53 1010.5
20260506071327 59 98 0.0 0.0 0.00 0.00 0.00 49 1010.4
20260506070834 59 98 0.0 0.0 0.00 0.00 0.00 48 1010.4
20260506070332 59 96 0.0 0.0 0.00 0.00 0.00 49 1010.4
20260506062351 60 82 0.0 0.0 0.00 0.00 0.00 49 1009.9
20260506061830 60 82 0.0 0.0 0.00 0.00 0.00 50 1009.8
20260506061508 60 82 0.0 0.0 0.00 0.00 0.00 49 1008.8
20260506061329 61 80 0.0 0.0 0.00 0.00 0.00 50 1009.7
20260506060834 60 80 0.0 0.0 0.00 0.00 0.00 49 1009.7
20260506060329 59 91 0.0 0.0 0.00 0.00 0.00 55 1009.7
20260506051318 62 89 0.0 0.0 0.00 0.00 0.00 51 1009.6
20260506050832 62 358 0.0 0.0 0.00 0.00 0.00 48 1009.6
20260506050335 62 95 0.0 0.0 0.00 0.00 0.00 46 1009.5
20260506044832 63 39 0.0 0.0 0.00 0.00 0.00 44 1009.4
20260506044555 63 32 0.0 0.0 0.00 0.00 0.00 45 1008.3
20260506044321 64 48 0.0 0.0 0.00 0.00 0.00 42 1009.3
20260506043820 65 96 0.0 0.0 0.00 0.00 0.00 43 1009.2
20260506043320 65 96 0.0 0.0 0.00 0.00 0.00 45 1009.2
20260506043103 65 98 0.0 0.0 0.00 0.00 0.00 45 1008.2
20260506042836 65 76 0.0 1.0 0.00 0.00 0.00 46 1009.2
20260506042318 65 100 0.0 1.0 0.00 0.00 0.00 47 1009.2
20260506041833 66 27 0.0 0.0 0.00 0.00 0.00 50 1009.2
20260506041508 67 226 0.0 0.0 0.00 0.00 0.00 40 1008.2
20260506041331 67 124 0.0 1.0 0.00 0.00 0.00 38 1009.1
20260506040831 68 133 0.0 1.0 0.00 0.00 0.00 38 1009.0
20260506040321 67 143 0.0 0.0 0.00 0.00 0.00 39 1008.8
20260506040101 66 95 0.0 0.0 0.00 0.00 0.00 40 1007.8
20260506035836 67 99 0.0 0.0 0.00 0.00 0.00 40 1008.9
20260506035328 67 34 0.0 0.0 0.00 0.00 0.00 43 1008.8
20260506034822 68 105 0.0 0.0 0.00 0.00 0.00 42 1008.8
20260506034505 67 82 0.0 1.0 0.00 0.00 0.00 44 1007.8
20260506034327 68 83 0.0 1.0 0.00 0.00 0.00 45 1008.7
20260506033840 70 338 0.0 0.0 0.00 0.00 0.00 34 1008.6
20260506033339 71 48 0.0 1.0 0.00 0.00 0.00 35 1008.6
20260506033007 71 47 0.0 1.0 0.00 0.00 0.00 35 1007.6
20260506032829 72 129 0.0 1.0 0.00 0.00 0.00 30 1008.6
20260506032333 73 210 0.0 2.0 0.00 0.00 0.00 32 1008.5
20260506031821 73 232 0.0 1.0 0.00 0.00 0.00 31 1008.5
20260506031607 73 239 0.0 1.0 0.00 0.00 0.00 30 1007.5
20260506031346 73 218 0.0 1.0 0.00 0.00 0.00 30 1008.5
20260506030842 74 201 0.0 1.0 0.00 0.00 0.00 31 1008.4
20260506030352 75 252 0.0 1.0 0.00 0.00 0.00 29 1008.4
20260506030059 75 205 0.0 1.0 0.00 0.00 0.00 28 1007.4
20260506025824 75 158 0.0 2.0 0.00 0.00 0.00 28 1008.4
20260506025320 75 218 0.0 3.0 0.00 0.00 0.00 31 1008.4
20260506024818 76 210 0.0 3.0 0.00 0.00 0.00 28 1008.4
20260506024609 76 206 1.0 3.0 0.00 0.00 0.00 28 1007.5
20260506024322 77 229 0.0 2.0 0.00 0.00 0.00 30 1008.4
20260506023834 78 139 0.0 2.0 0.00 0.00 0.00 29 1008.4
20260506023343 80 203 0.0 3.0 0.00 0.00 0.00 26 1008.4
20260506023113 80 186 0.0 3.0 0.00 0.00 0.00 27 1007.3
20260506022824 81 218 2.0 3.0 0.00 0.00 0.00 26 1008.5
20260506022357 82 229 0.0 1.0 0.00 0.00 0.00 25 1008.5
20260506021832 82 242 0.0 0.0 0.00 0.00 0.00 24 1008.5
20260506021553 81 235 0.0 0.0 0.00 0.00 0.00 24 1007.5
20260506021333 82 226 0.0 0.0 0.00 0.00 0.00 24 1008.5
20260506020848 82 296 0.0 0.0 0.00 0.00 0.00 25 1008.5
20260506020407 81 296 0.0 1.0 0.00 0.00 0.00 25 1008.5
20260506020057 80 297 0.0 1.0 0.00 0.00 0.00 27 1007.6
20260506015835 81 297 0.0 1.0 0.00 0.00 0.00 27 1008.5
20260506015330 80 318 0.0 0.0 0.00 0.00 0.00 26 1008.6
20260506014824 80 326 0.0 1.0 0.00 0.00 0.00 28 1008.7
20260506014608 78 326 0.0 1.0 0.00 0.00 0.00 28 1007.7
20260506014325 78 43 0.0 1.0 0.00 0.00 0.00 26 1008.8
20260506013326 78 16 1.0 3.0 0.00 0.00 0.00 26 1008.7
20260506013057 78 21 0.0 3.0 0.00 0.00 0.00 26 1007.7
20260506012833 78 31 0.0 3.0 0.00 0.00 0.00 26 1008.7
20260506012334 78 16 1.0 3.0 0.00 0.00 0.00 27 1008.7
20260506011831 77 19 2.0 3.0 0.00 0.00 0.00 27 1008.7
20260506011607 76 357 0.0 3.0 0.00 0.00 0.00 26 1007.7
20260506011327 77 359 1.0 3.0 0.00 0.00 0.00 32 1008.8
20260506010825 78 47 1.0 2.0 0.00 0.00 0.00 27 1008.8
20260506010329 78 41 0.0 4.0 0.00 0.00 0.00 25 1008.8
20260506010057 77 40 0.0 4.0 0.00 0.00 0.00 26 1007.9
20260506005822 78 37 3.0 4.0 0.00 0.00 0.00 25 1008.9
20260506005344 78 30 1.0 3.0 0.00 0.00 0.00 25 1008.9
20260506004824 78 29 0.0 3.0 0.00 0.00 0.00 23 1009.1
20260506004600 77 29 1.0 3.0 0.00 0.00 0.00 23 1008.1
20260506004327 77 29 3.0 3.0 0.00 0.00 0.00 25 1009.1
20260506003850 77 26 2.0 3.0 0.00 0.00 0.00 30 1009.1
20260506003328 78 36 2.0 4.0 0.00 0.00 0.00 27 1009.1
20260506003057 77 11 2.0 4.0 0.00 0.00 0.00 25 1008.1
20260506002838 78 34 3.0 4.0 0.00 0.00 0.00 28 1009.2
20260506002324 79 15 1.0 6.0 0.00 0.00 0.00 23 1009.2
20260506001824 79 21 3.0 7.0 0.00 0.00 0.00 23 1009.3
20260506001607 79 26 1.0 8.0 0.00 0.00 0.00 23 1008.3
20260506001338 79 56 3.0 10.0 0.00 0.00 0.00 22 1009.4
20260506000837 79 56 7.0 10.0 0.00 0.00 0.00 23 1009.4
20260506000335 79 29 4.0 11.0 0.00 0.00 0.00 22 1009.5
20260506000104 78 31 4.0 11.0 0.00 0.00 0.00 24 1008.6
20260505235839 78 43 7.0 8.0 0.00 0.00 0.00 28 1009.6
20260505235344 80 25 2.0 8.0 0.00 0.00 0.00 25 1009.6
20260505234839 79 111 4.0 6.0 0.00 0.00 0.00 23 1009.7
20260505234602 79 41 2.0 8.0 0.00 0.00 0.00 24 1008.6
20260505234341 79 66 2.0 8.0 0.00 0.00 0.00 23 1009.7
20260505233836 78 26 6.0 9.0 0.00 0.00 0.00 24 1009.7
20260505233322 78 32 6.0 10.0 0.00 0.00 0.00 25 1009.8
20260505232820 79 46 6.0 11.0 0.00 0.00 0.00 24 1009.8
20260505232318 79 51 3.0 11.0 0.00 0.00 0.00 22 1009.9
20260505231844 79 32 4.0 11.0 0.00 0.00 0.00 23 1009.9
20260505231612 78 58 4.0 11.0 0.00 0.00 0.00 23 1009.0
20260505231326 79 23 4.0 10.0 0.00 0.00 0.00 23 1010.1
20260505230829 78 25 6.0 10.0 0.00 0.00 0.00 23 1010.1
20260505230321 78 51 3.0 10.0 0.00 0.00 0.00 24 1010.1
20260505230122 77 94 6.0 10.0 0.00 0.00 0.00 24 1009.2
20260505225818 78 30 6.0 10.0 0.00 0.00 0.00 24 1010.2
20260505225320 77 60 7.0 10.0 0.00 0.00 0.00 25 1010.2
20260505224818 77 39 6.0 9.0 0.00 0.00 0.00 26 1010.3
20260505224520 77 33 4.0 10.0 0.00 0.00 0.00 25 1009.3
20260505224343 77 23 4.0 11.0 0.00 0.00 0.00 25 1010.4
20260505223819 77 48 8.0 11.0 0.00 0.00 0.00 27 1010.4
20260505223347 76 32 4.0 11.0 0.00 0.00 0.00 26 1010.5
20260505223116 75 36 4.0 11.0 0.00 0.00 0.00 29 1009.5
20260505222827 76 16 8.0 11.0 0.00 0.00 0.00 26 1010.5
20260505222325 77 48 2.0 6.0 0.00 0.00 0.00 28 1010.6
20260505221825 77 321 1.0 13.0 0.00 0.00 0.00 26 1010.7
20260505221508 76 358 5.0 13.0 0.00 0.00 0.00 27 1009.7
20260505221332 76 46 7.0 13.0 0.00 0.00 0.00 27 1010.7
20260505220841 75 221 0.0 2.0 0.00 0.00 0.00 31 1010.7
20260505220326 74 259 0.0 3.0 0.00 0.00 0.00 30 1010.9
20260505220103 73 211 1.0 4.0 0.00 0.00 0.00 32 1009.9
20260505215848 74 299 2.0 5.0 0.00 0.00 0.00 33 1010.9
20260505215349 74 271 2.0 6.0 0.00 0.00 0.00 32 1011.0
20260505214844 74 177 4.0 6.0 0.00 0.00 0.00 34 1010.9
20260505214505 74 211 2.0 3.0 0.00 0.00 0.00 32 1010.0
20260505214325 74 252 2.0 3.0 0.00 0.00 0.00 29 1011.0
20260505213836 74 215 2.0 4.0 0.00 0.00 0.00 32 1011.2
20260505213330 73 253 3.0 4.0 0.00 0.00 0.00 29 1011.2
20260505213108 72 238 2.0 4.0 0.00 0.00 0.00 30 1010.4
20260505212827 72 200 2.0 4.0 0.00 0.00 0.00 31 1011.4
20260505212326 71 203 2.0 4.0 0.00 0.00 0.00 34 1011.5
20260505211824 71 228 4.0 4.0 0.00 0.00 0.00 41 1011.6
20260505211319 72 226 3.0 4.0 0.00 0.00 0.00 34 1011.6
20260505210822 74 242 1.0 2.0 0.00 0.00 0.00 31 1011.7
20260505210334 73 248 0.0 3.0 0.00 0.00 0.00 32 1011.8
20260505210106 72 155 0.0 3.0 0.00 0.00 0.00 30 1010.8
20260505205828 72 246 1.0 3.0 0.00 0.00 0.00 31 1011.9
20260505205336 72 230 2.0 4.0 0.00 0.00 0.00 33 1011.9
20260505204838 71 232 4.0 4.0 0.00 0.00 0.00 33 1011.9
20260505204610 71 236 4.0 5.0 0.00 0.00 0.00 34 1011.0
20260505204331 72 218 4.0 4.0 0.00 0.00 0.00 34 1012.1
20260505203829 71 222 3.0 5.0 0.00 0.00 0.00 32 1012.2
20260505203338 71 222 3.0 5.0 0.00 0.00 0.00 33 1012.2
20260505203109 70 228 3.0 5.0 0.00 0.00 0.00 33 1011.2
20260505202834 70 226 4.0 5.0 0.00 0.00 0.00 35 1012.2
20260505202321 71 229 4.0 5.0 0.00 0.00 0.00 33 1012.3
20260505201819 71 201 2.0 5.0 0.00 0.00 0.00 33 1012.3
20260505201553 70 222 3.0 6.0 0.00 0.00 0.00 32 1011.4
20260505201334 70 217 3.0 7.0 0.00 0.00 0.00 33 1012.4
20260505200825 70 210 5.0 8.0 0.00 0.00 0.00 35 1012.5
20260505200329 70 222 6.0 8.0 0.00 0.00 0.00 36 1012.6
20260505200110 69 228 4.0 7.0 0.00 0.00 0.00 38 1011.6
20260505195836 70 222 5.0 6.0 0.00 0.00 0.00 35 1012.6
20260505195322 70 232 5.0 7.0 0.00 0.00 0.00 35 1012.7
20260505194830 69 236 6.0 7.0 0.00 0.00 0.00 35 1012.8
20260505194515 69 238 5.0 7.0 0.00 0.00 0.00 36 1011.9
20260505194338 69 235 5.0 7.0 0.00 0.00 0.00 36 1012.8
20260505193817 67 225 6.0 7.0 0.00 0.00 0.00 39 1012.9
20260505193332 67 229 5.0 6.0 0.00 0.00 0.00 41 1013.0
20260505193103 67 228 2.0 6.0 0.00 0.00 0.00 41 1012.1
20260505192833 67 226 4.0 7.0 0.00 0.00 0.00 40 1013.0
20260505192346 67 207 5.0 8.0 0.00 0.00 0.00 39 1013.1
20260505191900 66 219 5.0 8.0 0.00 0.00 0.00 42 1013.1
20260505191502 66 231 5.0 7.0 0.00 0.00 0.00 44 1012.2
20260505191327 67 238 7.0 7.0 0.00 0.00 0.00 39 1013.2
20260505190834 67 214 4.0 6.0 0.00 0.00 0.00 40 1013.2
20260505190341 66 214 4.0 6.0 0.00 0.00 0.00 39 1013.3
20260505185830 65 225 5.0 5.0 0.00 0.00 0.00 40 1013.4
20260505185333 64 210 4.0 5.0 0.00 0.00 0.00 44 1013.4
20260505184830 65 214 4.0 5.0 0.00 0.00 0.00 43 1013.5
20260505184557 64 239 4.0 5.0 0.00 0.00 0.00 41 1012.5
20260505184329 64 239 5.0 6.0 0.00 0.00 0.00 41 1013.5
20260505183824 64 236 4.0 6.0 0.00 0.00 0.00 45 1013.6
20260505183115 64 235 5.0 6.0 0.00 0.00 0.00 40 1012.7
20260505182826 65 242 5.0 6.0 0.00 0.00 0.00 40 1013.8
20260505182401 64 246 3.0 5.0 0.00 0.00 0.00 43 1013.8
20260505181848 63 225 3.0 5.0 0.00 0.00 0.00 44 1013.9
20260505181557 62 221 4.0 5.0 0.00 0.00 0.00 45 1012.9
20260505181324 63 219 3.0 4.0 0.00 0.00 0.00 48 1013.9
20260505180849 62 236 2.0 4.0 0.00 0.00 0.00 49 1013.9
20260505180324 62 225 2.0 4.0 0.00 0.00 0.00 48 1013.9
20260505180056 61 226 1.0 4.0 0.00 0.00 0.00 52 1013.0
20260505175834 61 235 3.0 4.0 0.00 0.00 0.00 51 1014.0
20260505175322 61 228 1.0 3.0 0.00 0.00 0.00 50 1014.0
20260505174850 60 226 1.0 3.0 0.00 0.00 0.00 52 1014.1
20260505174606 59 214 0.0 3.0 0.00 0.00 0.00 52 1013.1
20260505174318 59 222 1.0 3.0 0.00 0.00 0.00 54 1014.1
20260505173832 59 216 1.0 3.0 0.00 0.00 0.00 57 1014.2
20260505173331 59 231 1.0 4.0 0.00 0.00 0.00 57 1014.2
20260505173016 58 235 1.0 3.0 0.00 0.00 0.00 57 1013.2
20260505172837 59 249 2.0 3.0 0.00 0.00 0.00 56 1014.3
20260505172340 59 229 0.0 2.0 0.00 0.00 0.00 56 1014.3
20260505171511 57 236 0.0 3.0 0.00 0.00 0.00 58 1013.4
20260505171336 58 242 1.0 3.0 0.00 0.00 0.00 57 1014.4
20260505170821 57 185 0.0 3.0 0.00 0.00 0.00 59 1014.5
20260505170334 58 217 1.0 3.0 0.00 0.00 0.00 59 1014.4
20260505170114 58 213 0.0 2.0 0.00 0.00 0.00 57 1013.5
20260505165904 59 228 0.0 2.0 0.00 0.00 0.00 57 1014.5
20260505165336 58 232 0.0 3.0 0.00 0.00 0.00 57 1014.5
20260505164836 58 225 0.0 3.0 0.00 0.00 0.00 57 1014.5
20260505164351 57 218 0.0 4.0 0.00 0.00 0.00 58 1014.5
20260505163832 57 214 2.0 4.0 0.00 0.00 0.00 59 1014.5
20260505163340 56 219 2.0 4.0 0.00 0.00 0.00 60 1014.5
20260505163105 56 212 2.0 4.0 0.00 0.00 0.00 61 1013.5
20260505162826 56 235 3.0 4.0 0.00 0.00 0.00 60 1014.6
20260505162323 56 226 2.0 4.0 0.00 0.00 0.00 63 1014.6
20260505161818 56 221 1.0 3.0 0.00 0.00 0.00 63 1014.6
20260505161611 55 225 1.0 4.0 0.00 0.00 0.00 64 1013.6
20260505161329 56 246 1.0 4.0 0.00 0.00 0.00 65 1014.5
20260505160824 56 243 1.0 4.0 0.00 0.00 0.00 62 1014.6
20260505160323 55 235 1.0 3.0 0.00 0.00 0.00 65 1014.6
20260505153328 57 222 0.0 0.0 0.00 0.00 0.00 59 1014.6
20260505153054 58 203 0.0 0.0 0.00 0.00 0.00 56 1013.6
20260505152838 59 246 0.0 0.0 0.00 0.00 0.00 55 1014.6
20260505152356 58 29 0.0 0.0 0.00 0.00 0.00 52 1014.6
20260505151823 57 29 0.0 0.0 0.00 0.00 0.00 52 1014.6
20260505151603 57 29 0.0 0.0 0.00 0.00 0.00 53 1013.6
20260505151338 57 29 0.0 0.0 0.00 0.00 0.00 54 1014.6
20260505150822 57 27 0.0 0.0 0.00 0.00 0.00 54 1014.6
20260505150334 57 23 0.0 0.0 0.00 0.00 0.00 55 1014.6
20260505150109 56 25 0.0 0.0 0.00 0.00 0.00 55 1013.7
20260505140335 54 49 0.0 2.0 0.00 0.00 0.00 57 1014.3
20260505140106 53 78 0.0 1.0 0.00 0.00 0.00 58 1013.4
20260505130111 51 49 0.0 0.0 0.00 0.00 0.00 61 1012.8
20260505124818 50 76 0.0 0.0 0.00 0.00 0.00 62 1013.7
20260505124602 49 66 0.0 0.0 0.00 0.00 0.00 63 1012.6
20260505124319 49 76 0.0 0.0 0.00 0.00 0.00 65 1013.5
20260505123831 49 85 0.0 0.0 0.00 0.00 0.00 67 1013.5
20260505123349 49 85 0.0 0.0 0.00 0.00 0.00 67 1013.4
20260505123104 48 39 0.0 0.0 0.00 0.00 0.00 72 1012.5
20260505122845 49 37 0.0 0.0 0.00 0.00 0.00 73 1013.5
20260505122325 49 52 0.0 0.0 0.00 0.00 0.00 66 1013.3
20260505121821 49 60 0.0 0.0 0.00 0.00 0.00 65 1013.3
20260505121604 49 61 0.0 0.0 0.00 0.00 0.00 66 1012.4
20260505121336 49 78 0.0 0.0 0.00 0.00 0.00 66 1013.3
20260505120837 50 80 0.0 0.0 0.00 0.00 0.00 69 1013.2
20260505120346 50 81 0.0 0.0 0.00 0.00 0.00 70 1013.2
20260505120118 50 80 0.0 0.0 0.00 0.00 0.00 69 1012.2
20260505115845 50 82 0.0 0.0 0.00 0.00 0.00 68 1013.1
20260505115325 51 50 0.0 0.0 0.00 0.00 0.00 73 1013.1
20260505114818 51 250 0.0 0.0 0.00 0.00 0.00 69 1013.0
20260505114555 51 225 0.0 0.0 0.00 0.00 0.00 65 1012.1
20260505114330 52 78 0.0 0.0 0.00 0.00 0.00 61 1013.0
20260505113824 51 82 0.0 0.0 0.00 0.00 0.00 62 1012.9
20260505113329 50 70 0.0 0.0 0.00 0.00 0.00 68 1012.9
20260505113116 50 60 0.0 0.0 0.00 0.00 0.00 70 1012.0
20260505112840 50 65 0.0 0.0 0.00 0.00 0.00 72 1013.0
20260505112328 51 30 0.0 0.0 0.00 0.00 0.00 72 1012.9
20260505111837 51 39 0.0 0.0 0.00 0.00 0.00 66 1012.8
20260505111603 51 37 0.0 0.0 0.00 0.00 0.00 65 1011.9
20260505111331 52 49 0.0 0.0 0.00 0.00 0.00 64 1012.8
20260505110837 52 50 0.0 1.0 0.00 0.00 0.00 66 1012.8
20260505110337 53 31 0.0 1.0 0.00 0.00 0.00 64 1012.8
20260505110133 53 44 0.0 0.0 0.00 0.00 0.00 64 1011.9
20260505101838 54 76 0.0 0.0 0.00 0.00 0.00 56 1012.5
20260505101516 53 67 0.0 0.0 0.00 0.00 0.00 56 1011.4
20260505101339 54 80 0.0 0.0 0.00 0.00 0.00 56 1012.4
20260505100818 54 63 0.0 0.0 0.00 0.00 0.00 57 1012.4
20260505100324 54 75 0.0 0.0 0.00 0.00 0.00 57 1012.4
20260505095823 55 75 0.0 0.0 0.00 0.00 0.00 56 1012.3
20260505095345 55 50 0.0 0.0 0.00 0.00 0.00 57 1012.2
20260505094830 56 350 0.0 0.0 0.00 0.00 0.00 52 1012.2
20260505094632 55 85 0.0 0.0 0.00 0.00 0.00 53 1011.2
20260505094406 55 86 0.0 0.0 0.00 0.00 0.00 54 1012.1
20260505093834 55 106 0.0 0.0 0.00 0.00 0.00 54 1012.1
20260505093318 55 87 0.0 0.0 0.00 0.00 0.00 55 1012.0
20260505093100 55 79 0.0 0.0 0.00 0.00 0.00 55 1011.1